If you wish to contribute or participate in the discussions about articles you are invited to join SKYbrary as a registered user

 Actions

Bremen

From SKYbrary Wiki

EDDW
Airport
ICAO: EDDW
Summary
Name Bremen
Region Europe
Territory Germany DE.gif
Location Bremen, Germany
Serving
Coordinates 53° 2' 48.00" N, 8° 47' 12.00" E
Runways
Designator Length Width Surface ROPS
5/23 700 m2,296.588 ft
23 m75.459 ft
ASP no/no
9/27 2040 m6,692.913 ft
45 m147.638 ft
ASP yes/yes


METAR
Observation EDDW 260220Z 10003KT CAVOK 06/05 Q0996
Station Bremen
Date/Time 26 September 2020 02:20:00
Wind direction 100°
Wind speed 03 kts
Lowest cloud amount clouds and visibility OK
Temperature 6°C
Dew point 5°C
Humidity 93%
QNH 996 hPa
Weather condition n/a


Bremen Airport

ICAO: EDDW IATA: BRE

Description

International airport serving the German city of Bremen.

Climatology

Temperate Marine climate/Oceanic climate (Köppen climate classification Cfb) - Moderately cool summer and comparatively warm winter.

Maps

Terrain

Loading map...

Airport Layout

Loading map...


Accidents & Serious Incidents at or in vicinity of EDDW

None on SKYbrary